{"data":{"norad_id":69660,"epoch":"2026-09-19T08:45:52.586208Z","epoch_age_seconds":119706,"freshness":"FRESH","line1":"1 69660U 26143M   26262.36519197  .00010842  00000+0  33784-3 0  9994","line2":"2 69660  97.2816 305.4947 0001242  76.5475 283.5906 15.33428090 14976","mean_motion":15.3342809,"eccentricity":0.0001242,"inclination_deg":97.2816,"raan_deg":305.4947,"arg_perigee_deg":76.5475,"mean_anomaly_deg":283.5906,"bstar":0.00033784,"rev_number":1497,"period_min":93.907240214962,"perigee_km":464.74349587678,"apogee_km":466.4434785298,"semimajor_km":6843.7304872033,"source":"CELESTRAK","updated_at":"2026-09-20T09:00:44.249075Z"}}